Accueil
METAR-TAF:

METAR-TAF

Aéroports :

Saint-Brieuc, France

Aéroport de Saint-Brieuc Armor

latitude: 48-32N, longitude: 002-51W, altitude: 138 m

Observation

Le bulletin a été fait il y a 37 minutes, à 15:00 UTC
Vent 8 kt de nord-ouest
Température 20°C
Humidité 56%
Pression 1021 hPa
Visibilité 10 km ou plus
Ciel couvert à une hauteur de 4400 ft

METAR: LFRT 231500Z AUTO 31008KT 9999 OVC044 20/11 Q1021

Heure: 17:37 (15:37 UTC)


TAF: absent

Observations et prévisions météorologiques de plus de 4000 aéroports (messages METAR et TAF).

Les stations disponibles sont représentées par des disques jaunes et rouges sur la carte.

Passer la souris dessus pour voir le nom de la station.

Cliquer dessus pour voir les observations et prévisions météorologiques.

Pour changer de carte: cliquez sur les boutons verts avec une croix noire pour zoomer, sur le bouton vert avec un tiret pour effectuer un zoom arrière, ou sur les flèches vertes pour les cartes adjacentes.


METAR-TAF: